ZHUHAI-1 03C (44537 NORAD) Tracking and Keplerian Element Data

This shows tracking and keplerian element data for the satellite.

Feedback or suggestion? Click here.




ElementValue
Catalog44537
NameZHUHAI-1 03C
Epoch Orbit435
Epoch Day290.92948009
Epoch Year2019
RAAN40.9651
Inclination97.3992
Eccentricity0.000968
Argument of Perigee220.7652
Mean Anonmoly271.8563
Mean Motion15.1771107
Decay Rate6.81E-06
L11 44537U 19060D 19290.92948009 .00000681 00000-0 37056-4 0 9991
L22 44537 97.3992 40.9651 0009680 220.7652 271.8563 15.17711070 4350

Live tracking and technical data element details for ZHUHAI-1 03C (NORAD 44537). ZHUHAI-1 03C can be tracked NOW for your location showing map with azimuth and elevation plus other details from your city location.

Track the satellite on the map from your city or location and see movement details for azimuth, elevation, latitude, longitude, range, height, and movement on the map or in text.







IsCatalogInMostPopularTable: catalog: 44537, numindb: 15
Update: records affected: 1



GetName: 44537 ZHUHAI-1 03C

Hit Count: updated at: Thu, 12 Dec 2019 01:15:37 GMT